Regional Weather Roundup
Issued by NWS

Home | Current Version | Previous Version | Text Only | Print | Product List | Glossary On
Versions: 1 2 3 4 5 6 7 8 9 10 11 12 13 14 15 16 17 18 19 20 21 22 23 24 25 26 27 28 29 30 31 32 33 34 35 36 37 38 39 40 41 42 43 44 45 46 47 48 49 50
246
ASUS43 KLMK 242110
RWRKY
KENTUCKY REGIONAL WEATHER ROUNDUP
NATIONAL WEATHER SERVICE LOUISVILLE KY
500 PM EDT TUE MAY 24 2016

NOTE "FAIR" INDICATES FEW OR NO CLOUDS BELOW 12,000 FEET
WITH NO SIGNIFICANT WEATHER AND/OR OBSTRUCTIONS TO VISIBILITY.

KYZ001>023-026-027-061>063-070>075-242200-
WESTERN AND SOUTH CENTRAL KENTUCKY

CITY           SKY/WX    TMP DP  RH WIND       PRES   REMARKS
PADUCAH        MOSUNNY   84  58  40 SW13      30.04S
HENDERSON      CLOUDY    81  57  44 S8        30.05R
OWENSBORO      MOSUNNY   83  61  47 SW13      30.07R
HOPKINSVILLE   CLOUDY    82  57  42 S9        30.07S
BOWLING GREEN  SUNNY     84  55  36 W13       30.07S
GLASGOW        SUNNY     83  52  34 SW8       30.08S
$$

KYZ024-025-028>034-038-045-046-053-242200-
NORTH CENTRAL KENTUCKY

CITY           SKY/WX    TMP DP  RH WIND       PRES   REMARKS
LOUISVILLE/SDF PTSUNNY   84  52  33 W5        30.05F
LOUISVILLE/LOU SUNNY     82  51  34 S5        30.05F
FORT KNOX      MOSUNNY   83  53  36 S6        30.05F
$$

KYZ035>037-039>044-047>052-055>060-089>105-242200-
NORTHEAST KENTUCKY

CITY           SKY/WX    TMP DP  RH WIND       PRES   REMARKS
LEXINGTON      SUNNY     80  46  30 VRB7      30.09F
COVINGTON      MOSUNNY   80  47  31 S5        30.07F
FRANKFORT      SUNNY     81  44  27 CALM      30.07F
$$

KYZ054-064>069-076>088-106>120-242200-
SOUTHEAST KENTUCKY

CITY           SKY/WX    TMP DP  RH WIND       PRES   REMARKS
JACKSON        SUNNY     80  51  36 VRB3      30.11F
LONDON         SUNNY     79  42  26 SW3       30.10F
SOMERSET       SUNNY     79  46  31 CALM      30.11S
MIDDLESBORO    SUNNY     80  53  38 SE5       30.10F
MONTICELLO     CLEAR     82  54  37 W7        30.12S
$$





USA.gov is the U.S. government's official web portal to all federal, state and local government web resources and services.